Tracking 30074 objects as of 13-Jan-2025
HD Live streaming from Space Station
objects crossing your sky now

NAVSTAR 64 (USA 206)

Track NAVSTAR 64 (USA 206) now!
NAVSTAR 64 (USA 206) is classified as:


NORAD ID: 35752
Int'l Code: 2009-043A
Perigee: 20,047.8 km
Apogee: 20,332.1 km
Inclination: 55.8 °
Period: 718.0 minutes
Semi major axis: 26560 km
RCS: 6.3 m2 (large)
Launch date: August 17, 2009
Source: United States (US)
Launch site: AIR FORCE EASTERN TEST RANGE (AFETR)
PRN: 5
Your satellite tracking list
Your tracking list is empty




NASA's NSSDC Master Catalog

Two Line Element Set (TLE):
1 35752U 09043A   25012.85593042 -.00000058  00000-0  00000-0 0  9998
2 35752  55.8442  47.9633 0053512  75.3686 106.5328  2.00557083112925
Source of the keplerian elements: AFSPC